{"data":{"norad_id":62324,"epoch":"2026-09-22T21:59:20.979456Z","epoch_age_seconds":103243,"freshness":"FRESH","line1":"1 62324U 24240B   26265.91621504  .00000058  00000+0  10103-3 0  9998","line2":"2 62324  86.5009 310.4693 0001700  89.6318 270.5011 13.24414263 85588","mean_motion":13.24414263,"eccentricity":0.00017,"inclination_deg":86.5009,"raan_deg":310.4693,"arg_perigee_deg":89.6318,"mean_anomaly_deg":270.5011,"bstar":0.00010103,"rev_number":8558,"period_min":108.72730989307,"perigee_km":1166.623165566,"apogee_km":1169.1888201835,"semimajor_km":7546.0429928748,"source":"CELESTRAK","updated_at":"2026-09-23T09:00:21.353665Z"}}